EW5186 Weather Reports


time (UTC)temp
C
wind
direction
speed
KPH
gust
KPH
rain 1hr
cm
rain 24hr
cm
rain mn
cm
humidity
%
barometer
mb
20260505231523 18 233 1.6 14.5 0.00 0.00 0.00 68 1010.7
20260505230038 18 160 0.0 16.1 0.00 0.00 0.00 67 1010.4
20260505224522 18 77 3.2 16.1 0.00 0.00 0.00 66 1010.6
20260505223010 20 150 3.2 12.9 0.00 0.00 0.00 64 1010.6
20260505221508 20 23 3.2 9.7 0.00 0.00 0.00 63 1010.4
20260505220007 20 149 1.6 12.9 0.00 0.00 0.00 63 1010.3
20260505214507 21 146 3.2 17.7 0.00 0.00 0.00 64 1010.3
20260505213005 21 129 1.6 12.9 0.00 0.00 0.00 62 1010.2
20260505211505 21 130 1.6 12.9 0.00 0.00 0.00 65 1010.2
20260505210004 21 248 3.2 11.3 0.00 0.00 0.00 62 1010.2
20260505204502 21 152 4.8 14.5 0.00 0.00 0.00 62 1010.1
20260505203116 22 293 1.6 19.3 0.00 0.00 0.00 60 1010.0
20260505201557 22 71 1.6 14.5 0.00 0.00 0.00 63 1010.1
20260505200044 22 103 3.2 16.1 0.00 0.00 0.00 60 1010.4
20260505194550 22 125 4.8 17.7 0.00 0.00 0.00 62 1010.3
20260505193040 22 126 4.8 17.7 0.00 0.00 0.00 60 1010.5
20260505191539 22 96 0.0 14.5 0.00 0.00 0.00 60 1010.6
20260505190038 22 222 3.2 20.9 0.00 0.00 0.00 61 1010.8
20260505184538 22 169 6.4 14.5 0.00 0.00 0.00 60 1010.9
20260505183037 22 27 0.0 22.5 0.00 0.00 0.00 63 1010.8
20260505181536 23 129 1.6 19.3 0.00 0.00 0.00 60 1010.8
20260505180034 23 136 4.8 14.5 0.00 0.00 0.00 58 1010.8
20260505174531 23 230 1.6 12.9 0.00 0.00 0.00 62 1010.9
20260505173040 22 254 4.8 20.9 0.00 0.00 0.00 60 1011.2
20260505171510 22 136 4.8 14.5 0.00 0.00 0.00 59 1011.1
20260505170013 22 93 4.8 14.5 0.00 0.00 0.00 64 1011.1
20260505164601 22 103 3.2 14.5 0.00 0.00 0.00 61 1011.3
20260505163059 22 104 3.2 12.9 0.00 0.00 0.00 61 1011.8
20260505161550 21 125 4.8 16.1 0.00 0.00 0.00 63 1012.1
20260505153105 21 271 4.8 19.3 0.00 0.00 0.00 64 1012.6
20260505151554 21 124 3.2 16.1 0.00 0.00 0.00 62 1012.8
20260505140107 18 291 1.6 11.3 0.00 0.00 0.00 71 1012.4
20260505124530 15 218 0.0 6.4 0.00 0.00 0.00 82 1012.6
20260505123028 14 326 0.0 4.8 0.00 0.00 0.00 83 1012.7
20260505121531 14 291 0.0 11.3 0.00 0.00 0.00 83 1012.9
20260505120027 14 271 1.6 8.0 0.00 0.00 0.00 83 1012.9
20260505114505 13 123 0.0 4.8 0.00 0.00 0.00 87 1012.9
20260505113004 12 173 0.0 4.8 0.00 0.00 0.00 86 1013.1
20260505111647 12 134 1.6 4.8 0.00 0.00 0.00 85 1012.7
20260505101530 10 159 0.0 1.6 0.00 0.00 0.00 92 1012.0
20260505100034 10 103 0.0 0.0 0.00 0.00 0.00 92 1011.9
20260505094526 10 160 0.0 0.0 0.00 0.00 0.00 92 1011.9
20260505093026 9 94 0.0 3.2 0.00 0.00 0.00 92 1011.9
20260505091524 10 146 0.0 1.6 0.00 0.00 0.00 91 1011.8
20260505090044 10 74 0.0 1.6 0.00 0.00 0.00 91 1011.7
20260505084504 10 170 0.0 4.8 0.00 0.00 0.00 91 1011.9
20260505083105 10 60 0.0 1.6 0.00 0.00 0.00 90 1012.0
20260505081559 10 150 0.0 0.0 0.00 0.00 0.00 90 1012.0
20260505080051 10 87 0.0 0.0 0.00 0.00 0.00 89 1012.0
20260505074606 10 61 0.0 1.6 0.00 0.00 0.00 89 1012.0
20260505073052 10 128 0.0 1.6 0.00 0.00 0.00 89 1012.0
20260505071547 10 82 0.0 4.8 0.00 0.00 0.00 88 1012.1
20260505070047 10 118 0.0 3.2 0.00 0.00 0.00 87 1012.1
20260505064545 10 114 0.0 4.8 0.00 0.00 0.00 86 1012.3
20260505063044 10 90 0.0 3.2 0.00 0.00 0.00 86 1012.2
20260505061531 10 162 0.0 1.6 0.00 0.00 0.00 87 1012.4
20260505060023 10 116 0.0 0.0 0.00 0.00 0.00 86 1012.4
20260505054519 10 103 0.0 3.2 0.00 0.00 0.00 86 1012.5
20260505053011 10 150 0.0 4.8 0.00 0.00 0.00 87 1012.6
20260505051509 9 145 0.0 0.0 0.00 0.00 0.00 86 1012.7
20260505041602 10 100 0.0 0.0 0.00 0.00 0.00 82 1012.9
20260505040100 10 142 0.0 1.6 0.00 0.00 0.00 82 1013.0
20260505034543 10 91 0.0 1.6 0.00 0.00 0.00 81 1013.0
20260505033048 11 138 0.0 3.2 0.00 0.00 0.00 80 1013.0
20260505031528 11 111 0.0 4.8 0.00 0.00 0.00 79 1013.0
20260505030027 11 115 0.0 3.2 0.00 0.00 0.00 78 1013.0
20260505024549 11 103 0.0 3.2 0.00 0.00 0.00 79 1013.1
20260505023036 11 85 0.0 3.2 0.00 0.00 0.00 79 1013.0
20260505021542 11 151 0.0 1.6 0.00 0.00 0.00 79 1013.1
20260505020025 11 121 0.0 1.6 0.00 0.00 0.00 79 1013.0
20260505014527 11 138 0.0 4.8 0.00 0.00 0.00 77 1012.9
20260505013024 12 133 0.0 3.2 0.00 0.00 0.00 77 1012.9
20260505011507 12 120 0.0 8.0 0.00 0.00 0.00 75 1012.8
20260505010006 12 66 0.0 9.7 0.00 0.00 0.00 74 1012.6
20260505004549 12 86 1.6 8.0 0.00 0.00 0.00 72 1012.3
20260505003047 12 72 0.0 8.0 0.00 0.00 0.00 72 1012.3
20260505001531 12 148 0.0 3.2 0.00 0.00 0.00 71 1012.0
20260505000029 13 143 0.0 8.0 0.00 0.00 0.00 69 1011.8
20260504234511 13 129 0.0 4.8 0.00 0.00 0.00 67 1011.6
20260504233009 15 198 1.6 14.5 0.00 0.00 0.00 64 1011.4